Location: Airlie Beach - Cannonvale QLD, Australia
(20.2768°S, 148.7558°E)
Time: 00:03:47
(UTC+10:00)

Hubble Space Telescope - Pass Details

Date: 28 May 2026
Orbit: 473 x 475 km, 28.5° (Epoch: 5 June)

Event Time Altitude Azimuth Distance (km) Brightness Sun altitude
Rises 18:59:23 0° 248° (WSW) 2,515 5.0 -20.0°
Reaches altitude 10° 19:01:35 10° 246° (WSW) 1,636 3.9 -20.5°
Enters shadow 19:05:15 78° 187° (S) 485 0.4 -21.3°
